| time (UTC) | temp F | wind direction | speed MPH | gust MPH | rain 1hr in | rain 24hr in | rain mn in | humidity % | barometer mb |
| 20260507130058 | 58 | 55 | 1.0 | 2.0 | 0.01 | 1.16 | 0.09 | 56 | 1017.6 |
| 20260507124100 | 58 | 34 | 1.0 | 3.0 | 0.02 | 1.16 | 0.09 | 60 | 1017.5 |
| 20260507123101 | 58 | 67 | 1.0 | 3.0 | 0.02 | 1.16 | 0.09 | 61 | 1017.4 |
| 20260507120058 | 59 | 57 | 3.0 | 7.0 | 0.01 | 1.15 | 0.09 | 55 | 1017.3 |
| 20260507115100 | 60 | 38 | 3.0 | 7.0 | 0.02 | 1.15 | 0.09 | 60 | 1017.2 |
| 20260507112103 | 60 | 50 | 3.0 | 6.0 | 0.01 | 1.14 | 0.08 | 59 | 1017.4 |
| 20260507111058 | 59 | 246 | 2.0 | 5.0 | 0.08 | 1.14 | 0.08 | 61 | 1017.4 |
| 20260507110058 | 58 | 1 | 2.0 | 4.0 | 0.08 | 1.14 | 0.08 | 63 | 1017.5 |
| 20260507105100 | 56 | 235 | 2.0 | 5.0 | 0.08 | 1.14 | 0.08 | 65 | 1017.5 |
| 20260506203106 | 49 | 53 | 3.0 | 7.0 | 0.01 | 1.06 | 1.06 | 83 | 1013.4 |
| 20260506195104 | 50 | 55 | 3.0 | 7.0 | 0.02 | 1.06 | 1.06 | 79 | 1012.9 |
| 20260506194106 | 51 | 55 | 3.0 | 6.0 | 0.01 | 1.06 | 1.06 | 79 | 1012.8 |
| 20260506193105 | 51 | 56 | 3.0 | 5.0 | 0.01 | 1.06 | 1.06 | 78 | 1012.8 |
| 20260506191104 | 52 | 64 | 1.0 | 3.0 | 0.01 | 1.06 | 1.06 | 78 | 1012.3 |
| 20260506190105 | 52 | 68 | 1.0 | 4.0 | 1.06 | 1.06 | 1.06 | 79 | 1012.3 |
| 20260506185106 | 52 | 18 | 1.0 | 2.0 | 1.06 | 1.06 | 1.06 | 85 | 1012.1 |
| 20260506184100 | 53 | 30 | 1.0 | 2.0 | 1.05 | 1.05 | 1.05 | 83 | 1011.9 |
| 20260506183105 | 53 | 106 | 0.0 | 1.0 | 1.05 | 1.05 | 1.05 | 84 | 1011.8 |
| 20260506182105 | 53 | 359 | 0.0 | 1.0 | 1.05 | 1.05 | 1.05 | 85 | 1011.7 |
| 20260506180104 | 53 | 320 | 0.0 | 1.0 | 1.05 | 1.05 | 1.05 | 87 | 1011.4 |